2019-089G (44858 NORAD) Tracking and Keplerian Element Data

This shows tracking and keplerian element data for the satellite.

Feedback or suggestion? Click here.




ElementValue
Catalog44858
Name2019-089G
Epoch Orbit636
Epoch Day22.97933304
Epoch Year2020
RAAN244.313
Inclination36.971
Eccentricity0.0007376
Argument of Perigee279.0558
Mean Anonmoly80.9351
Mean Motion14.97984746
Decay Rate5.58E-06
L11 44858U 19089G 20022.97933304 .00000558 00000-0 52904-4 0 9992
L22 44858 36.9710 244.3130 0007376 279.0558 80.9351 14.97984746 6363

Live tracking and technical data element details for 2019-089G (NORAD 44858). 2019-089G can be tracked NOW for your location showing map with azimuth and elevation plus other details from your city location.

Track the satellite on the map from your city or location and see movement details for azimuth, elevation, latitude, longitude, range, height, and movement on the map or in text.







IsCatalogInMostPopularTable: catalog: 44858, numindb: 8
Update: records affected: 1



GetName: 44858 2019-089G

Hit Count: updated at: Fri, 24 Jan 2020 10:26:40 GMT